Simultaneous Nadir Overpasses (SNOs) Predictions

Prediction of SNOs between GOES-15 and NPP Satellite Orbit:

Table of predicted SNOs for the next 14.0 days since TLE Epoch: 7/23/2013
Index Date Time (GOES-15) GOES-15 Lat,Lon NPP Lat,Lon Distance(km) Time Diff (sec)
1 07/23/2013 22:23:51 0.24,-135.37 0.44,-134.48 101.93 80
2 07/25/2013 10:43:01 -0.26,-135.40 0.74,-139.76 497.28 80
3 07/26/2013 10:24:17 -0.25,-135.40 -0.26,-135.22 19.14 80
4 07/28/2013 22:27:33 0.26,-135.37 0.13,-136.01 72.45 80
5 07/29/2013 22:11:30 0.25,-135.37 1.13,-131.48 443.43 80
6 07/31/2013 10:30:40 -0.27,-135.39 0.04,-136.76 156.71 80
7 08/01/2013 10:14:37 -0.27,-135.38 -0.95,-132.23 358.65 80
8 08/02/2013 22:33:55 0.28,-135.35 -0.22,-137.54 250.14 80
9 08/03/2013 22:17:51
